owner,sensor,date,latitude,longitude,vertical_datum,sea_water_practical_salinity,qcFlag 
DISL,ioos:station:DISL:MHPA:1,2011-05-01T00:00:00Z,30.6671,-87.9365,3.323,0.07,1111122 
DISL,ioos:station:DISL:MHPA:1,2011-05-01T00:30:00Z,30.6671,-87.9365,3.235,0.07,1111122 
DISL,ioos:station:DISL:MHPA:1,2011-05-01T01:00:00Z,30.6671,-87.9365,3.167,0.07,1111122 
DISL,ioos:station:DISL:MHPA:1,2011-05-01T01:30:00Z,30.6671,-87.9365,3.122,0.07,1111122 
DISL,ioos:station:DISL:MHPA:1,2011-05-01T02:00:00Z,30.6671,-87.9365,3.117,0.07,1111122 
DISL,ioos:station:DISL:MHPA:1,2011-05-01T02:30:00Z,30.6671,-87.9365,3.112,0.07,1111122 
DISL,ioos:station:DISL:MHPA:1,2011-05-01T03:00:00Z,30.6671,-87.9365,3.138,0.07,1111122 
DISL,ioos:station:DISL:MHPA:1,2011-05-01T03:30:00Z,30.6671,-87.9365,3.216,0.07,1111122 
DISL,ioos:station:DISL:MHPA:1,2011-05-01T04:00:00Z,30.6671,-87.9365,3.323,0.07,1111122 
DISL,ioos:station:DISL:MHPA:1,2011-05-01T04:30:00Z,30.6671,-87.9365,3.437,0.07,1111122 
DISL,ioos:station:DISL:MHPA:1,2011-05-01T05:00:00Z,30.6671,-87.9365,3.608,0.07,1111122 
DISL,ioos:station:DISL:MHPA:1,2011-05-01T05:30:00Z,30.6671,-87.9365,3.704,0.07,1111122 
DISL,ioos:station:DISL:MHPA:1,2011-05-01T06:00:00Z,30.6671,-87.9365,3.776,0.08,1111122 
DISL,ioos:station:DISL:MHPA:1,2011-05-01T06:30:00Z,30.6671,-87.9365,3.844,0.07,1111122 
DISL,ioos:station:DISL:MHPA:1,2011-05-01T07:00:00Z,30.6671,-87.9365,3.858,0.07,1111122 
DISL,ioos:station:DISL:MHPA:1,2011-05-01T07:30:00Z,30.6671,-87.9365,3.876,0.07,1111122 
DISL,ioos:station:DISL:MHPA:1,2011-05-01T08:00:00Z,30.6671,-87.9365,3.933,0.07,1111122 
DISL,ioos:station:DISL:MHPA:1,2011-05-01T08:30:00Z,30.6671,-87.9365,3.978,0.07,1111122 
DISL,ioos:station:DISL:MHPA:1,2011-05-01T09:00:00Z,30.6671,-87.9365,4.074,0.07,1111122 
DISL,ioos:station:DISL:MHPA:1,2011-05-01T09:30:00Z,30.6671,-87.9365,4.161,0.07,1111122 
DISL,ioos:station:DISL:MHPA:1,2011-05-01T10:00:00Z,30.6671,-87.9365,4.216,0.07,1111122 
DISL,ioos:station:DISL:MHPA:1,2011-05-01T10:30:00Z,30.6671,-87.9365,4.238,0.07,1111122 
DISL,ioos:station:DISL:MHPA:1,2011-05-01T11:00:00Z,30.6671,-87.9365,4.256,0.07,1111122 
DISL,ioos:station:DISL:MHPA:1,2011-05-01T11:30:00Z,30.6671,-87.9365,4.252,0.07,1111122 
DISL,ioos:station:DISL:MHPA:1,2011-05-01T12:00:00Z,30.6671,-87.9365,4.211,0.07,1111122 
DISL,ioos:station:DISL:MHPA:1,2011-05-01T12:30:00Z,30.6671,-87.9365,4.193,0.07,1111122 
DISL,ioos:station:DISL:MHPA:1,2011-05-01T13:00:00Z,30.6671,-87.9365,4.255,0.07,1111122 
DISL,ioos:station:DISL:MHPA:1,2011-05-01T13:30:00Z,30.6671,-87.9365,4.321,0.07,1111122 
DISL,ioos:station:DISL:MHPA:1,2011-05-01T14:00:00Z,30.6671,-87.9365,4.424,0.07,1111122 
DISL,ioos:station:DISL:MHPA:1,2011-05-01T14:30:00Z,30.6671,-87.9365,4.516,0.07,1111122 
DISL,ioos:station:DISL:MHPA:1,2011-05-01T15:00:00Z,30.6671,-87.9365,4.621,0.07,1111122 
DISL,ioos:station:DISL:MHPA:1,2011-05-01T15:30:00Z,30.6671,-87.9365,4.609,0.07,1111122 
DISL,ioos:station:DISL:MHPA:1,2011-05-01T16:00:00Z,30.6671,-87.9365,4.564,0.07,1111122 
DISL,ioos:station:DISL:MHPA:1,2011-05-01T16:30:00Z,30.6671,-87.9365,4.572,0.07,1111122 
DISL,ioos:station:DISL:MHPA:1,2011-05-01T17:00:00Z,30.6671,-87.9365,4.513,0.07,1111122 
DISL,ioos:station:DISL:MHPA:1,2011-05-01T17:30:00Z,30.6671,-87.9365,4.442,0.07,1111122 
DISL,ioos:station:DISL:MHPA:1,2011-05-01T18:00:00Z,30.6671,-87.9365,4.329,0.07,1111122 
DISL,ioos:station:DISL:MHPA:1,2011-05-01T18:30:00Z,30.6671,-87.9365,4.262,0.07,1111122 
DISL,ioos:station:DISL:MHPA:1,2011-05-01T19:00:00Z,30.6671,-87.9365,4.209,0.07,1111122 
DISL,ioos:station:DISL:MHPA:1,2011-05-01T19:30:00Z,30.6671,-87.9365,4.173,0.07,1111122 
DISL,ioos:station:DISL:MHPA:1,2011-05-01T20:00:00Z,30.6671,-87.9365,4.013,0.07,1111122 
DISL,ioos:station:DISL:MHPA:1,2011-05-01T20:30:00Z,30.6671,-87.9365,3.898,0.07,1111122 
DISL,ioos:station:DISL:MHPA:1,2011-05-01T21:00:00Z,30.6671,-87.9365,3.799,0.07,1111122 
DISL,ioos:station:DISL:MHPA:1,2011-05-01T21:30:00Z,30.6671,-87.9365,3.717,0.07,1111122 
DISL,ioos:station:DISL:MHPA:1,2011-05-01T22:00:00Z,30.6671,-87.9365,3.621,0.07,1111122 
DISL,ioos:station:DISL:MHPA:1,2011-05-01T22:30:00Z,30.6671,-87.9365,3.547,0.07,1111122 
DISL,ioos:station:DISL:MHPA:1,2011-05-01T23:00:00Z,30.6671,-87.9365,3.47,0.07,1111122 
DISL,ioos:station:DISL:MHPA:1,2011-05-01T23:30:00Z,30.6671,-87.9365,3.411,0.07,1111122 
DISL,ioos:station:DISL:MHPA:1,2011-05-02T00:00:00Z,30.6671,-87.9365,3.348,0.07,1111122 
DISL,ioos:station:DISL:MHPA:1,2011-05-02T00:30:00Z,30.6671,-87.9365,3.294,0.07,1111122 
DISL,ioos:station:DISL:MHPA:1,2011-05-02T01:00:00Z,30.6671,-87.9365,3.245,0.07,1111122 
DISL,ioos:station:DISL:MHPA:1,2011-05-02T01:30:00Z,30.6671,-87.9365,3.225,0.07,1111122 
DISL,ioos:station:DISL:MHPA:1,2011-05-02T02:00:00Z,30.6671,-87.9365,3.215,0.07,1111122 
DISL,ioos:station:DISL:MHPA:1,2011-05-02T02:30:00Z,30.6671,-87.9365,3.246,0.07,1111122 
DISL,ioos:station:DISL:MHPA:1,2011-05-02T03:00:00Z,30.6671,-87.9365,3.299,0.07,1111122 
DISL,ioos:station:DISL:MHPA:1,2011-05-02T03:30:00Z,30.6671,-87.9365,3.417,0.07,1111122 
DISL,ioos:station:DISL:MHPA:1,2011-05-02T04:00:00Z,30.6671,-87.9365,3.539,0.07,1111122 
DISL,ioos:station:DISL:MHPA:1,2011-05-02T04:30:00Z,30.6671,-87.9365,3.737,0.07,1111122 
DISL,ioos:station:DISL:MHPA:1,2011-05-02T05:00:00Z,30.6671,-87.9365,3.937,0.07,1111122 
DISL,ioos:station:DISL:MHPA:1,2011-05-02T05:30:00Z,30.6671,-87.9365,4.1,0.07,1111122 
DISL,ioos:station:DISL:MHPA:1,2011-05-02T06:00:00Z,30.6671,-87.9365,4.134,0.07,1111122 
DISL,ioos:station:DISL:MHPA:1,2011-05-02T06:30:00Z,30.6671,-87.9365,4.123,0.07,1111122 
DISL,ioos:station:DISL:MHPA:1,2011-05-02T07:00:00Z,30.6671,-87.9365,4.143,0.07,1111122 
DISL,ioos:station:DISL:MHPA:1,2011-05-02T07:30:00Z,30.6671,-87.9365,4.261,0.07,1111122 
DISL,ioos:station:DISL:MHPA:1,2011-05-02T08:00:00Z,30.6671,-87.9365,4.321,0.07,1111122 
DISL,ioos:station:DISL:MHPA:1,2011-05-02T08:30:00Z,30.6671,-87.9365,4.352,0.07,1111122 
DISL,ioos:station:DISL:MHPA:1,2011-05-02T09:00:00Z,30.6671,-87.9365,4.438,0.07,1111122 
DISL,ioos:station:DISL:MHPA:1,2011-05-02T09:30:00Z,30.6671,-87.9365,4.51,0.07,1111122 
DISL,ioos:station:DISL:MHPA:1,2011-05-02T10:00:00Z,30.6671,-87.9365,4.537,0.07,1111122 
DISL,ioos:station:DISL:MHPA:1,2011-05-02T10:30:00Z,30.6671,-87.9365,4.545,0.07,1111122 
DISL,ioos:station:DISL:MHPA:1,2011-05-02T11:00:00Z,30.6671,-87.9365,4.578,0.07,1111122 
DISL,ioos:station:DISL:MHPA:1,2011-05-02T11:30:00Z,30.6671,-87.9365,4.548,0.07,1111122 
DISL,ioos:station:DISL:MHPA:1,2011-05-02T12:00:00Z,30.6671,-87.9365,4.51,0.07,1111122 
DISL,ioos:station:DISL:MHPA:1,2011-05-02T12:30:00Z,30.6671,-87.9365,4.467,0.07,1111122 
DISL,ioos:station:DISL:MHPA:1,2011-05-02T13:00:00Z,30.6671,-87.9365,4.409,0.07,1111122 
DISL,ioos:station:DISL:MHPA:1,2011-05-02T13:30:00Z,30.6671,-87.9365,4.364,0.07,1111122 
DISL,ioos:station:DISL:MHPA:1,2011-05-02T14:00:00Z,30.6671,-87.9365,4.36,0.07,1111122 
DISL,ioos:station:DISL:MHPA:1,2011-05-02T14:30:00Z,30.6671,-87.9365,4.368,0.07,1111122 
DISL,ioos:station:DISL:MHPA:1,2011-05-02T15:00:00Z,30.6671,-87.9365,4.382,0.07,1111122 
DISL,ioos:station:DISL:MHPA:1,2011-05-02T15:30:00Z,30.6671,-87.9365,4.439,0.07,1111122 
DISL,ioos:station:DISL:MHPA:1,2011-05-02T16:00:00Z,30.6671,-87.9365,4.571,0.07,1111122 
DISL,ioos:station:DISL:MHPA:1,2011-05-02T16:30:00Z,30.6671,-87.9365,4.607,0.07,1111122 
DISL,ioos:station:DISL:MHPA:1,2011-05-02T17:00:00Z,30.6671,-87.9365,4.617,0.07,1111122 
DISL,ioos:station:DISL:MHPA:1,2011-05-02T17:30:00Z,30.6671,-87.9365,4.559,0.07,1111122 
DISL,ioos:station:DISL:MHPA:1,2011-05-02T18:00:00Z,30.6671,-87.9365,4.589,0.07,1111122 
DISL,ioos:station:DISL:MHPA:1,2011-05-02T18:30:00Z,30.6671,-87.9365,4.554,0.07,1111122 
DISL,ioos:station:DISL:MHPA:1,2011-05-02T19:00:00Z,30.6671,-87.9365,4.465,0.07,1111122 
DISL,ioos:station:DISL:MHPA:1,2011-05-02T19:30:00Z,30.6671,-87.9365,4.359,0.07,1111122 
DISL,ioos:station:DISL:MHPA:1,2011-05-02T20:00:00Z,30.6671,-87.9365,4.254,0.07,1111122 
DISL,ioos:station:DISL:MHPA:1,2011-05-02T20:30:00Z,30.6671,-87.9365,4.169,0.07,1111122 
DISL,ioos:station:DISL:MHPA:1,2011-05-02T21:00:00Z,30.6671,-87.9365,4.05,0.08,1111122 
DISL,ioos:station:DISL:MHPA:1,2011-05-02T21:30:00Z,30.6671,-87.9365,3.935,0.08,1111122 
DISL,ioos:station:DISL:MHPA:1,2011-05-02T22:00:00Z,30.6671,-87.9365,3.899,0.08,1111122 
DISL,ioos:station:DISL:MHPA:1,2011-05-02T22:30:00Z,30.6671,-87.9365,3.773,0.08,1111122 
DISL,ioos:station:DISL:MHPA:1,2011-05-02T23:00:00Z,30.6671,-87.9365,3.642,0.08,1111122 
DISL,ioos:station:DISL:MHPA:1,2011-05-02T23:30:00Z,30.6671,-87.9365,3.519,0.08,1111122 
DISL,ioos:station:DISL:MHPA:1,2011-05-03T00:00:00Z,30.6671,-87.9365,3.4,0.08,1111122 
DISL,ioos:station:DISL:MHPA:1,2011-05-03T00:30:00Z,30.6671,-87.9365,3.317,0.07,1111122 
DISL,ioos:station:DISL:MHPA:1,2011-05-03T01:00:00Z,30.6671,-87.9365,3.219,0.07,1111122 
DISL,ioos:station:DISL:MHPA:1,2011-05-03T01:30:00Z,30.6671,-87.9365,3.138,0.08,1111122 
DISL,ioos:station:DISL:MHPA:1,2011-05-03T02:00:00Z,30.6671,-87.9365,3.094,0.08,1111122 
DISL,ioos:station:DISL:MHPA:1,2011-05-03T02:30:00Z,30.6671,-87.9365,3.039,0.08,1111122 
DISL,ioos:station:DISL:MHPA:1,2011-05-03T03:00:00Z,30.6671,-87.9365,2.999,0.08,1111122 
DISL,ioos:station:DISL:MHPA:1,2011-05-03T03:30:00Z,30.6671,-87.9365,2.967,0.08,1111122 
DISL,ioos:station:DISL:MHPA:1,2011-05-03T04:00:00Z,30.6671,-87.9365,2.981,0.08,1111122 
DISL,ioos:station:DISL:MHPA:1,2011-05-03T04:30:00Z,30.6671,-87.9365,3.071,0.08,1111122 
DISL,ioos:station:DISL:MHPA:1,2011-05-03T05:00:00Z,30.6671,-87.9365,3.174,0.08,1111122 
DISL,ioos:station:DISL:MHPA:1,2011-05-03T05:30:00Z,30.6671,-87.9365,3.254,0.08,1111122 
DISL,ioos:station:DISL:MHPA:1,2011-05-03T06:00:00Z,30.6671,-87.9365,3.323,0.08,1111122 
DISL,ioos:station:DISL:MHPA:1,2011-05-03T06:30:00Z,30.6671,-87.9365,3.414,0.08,1111122 
DISL,ioos:station:DISL:MHPA:1,2011-05-03T07:00:00Z,30.6671,-87.9365,3.501,0.08,1111122 
DISL,ioos:station:DISL:MHPA:1,2011-05-03T07:30:00Z,30.6671,-87.9365,3.576,0.08,1111122 
DISL,ioos:station:DISL:MHPA:1,2011-05-03T08:00:00Z,30.6671,-87.9365,3.743,0.08,1111122 
DISL,ioos:station:DISL:MHPA:1,2011-05-03T08:30:00Z,30.6671,-87.9365,3.841,0.08,1111122 
DISL,ioos:station:DISL:MHPA:1,2011-05-03T09:00:00Z,30.6671,-87.9365,3.915,0.08,1111122 
DISL,ioos:station:DISL:MHPA:1,2011-05-03T09:30:00Z,30.6671,-87.9365,4.022,0.08,1111122 
DISL,ioos:station:DISL:MHPA:1,2011-05-03T10:00:00Z,30.6671,-87.9365,4.054,0.08,1111122 
DISL,ioos:station:DISL:MHPA:1,2011-05-03T10:30:00Z,30.6671,-87.9365,4.181,0.08,1111122 
DISL,ioos:station:DISL:MHPA:1,2011-05-03T11:00:00Z,30.6671,-87.9365,4.266,0.08,1111122 
DISL,ioos:station:DISL:MHPA:1,2011-05-03T11:30:00Z,30.6671,-87.9365,4.312,0.08,1111122 
DISL,ioos:station:DISL:MHPA:1,2011-05-03T12:00:00Z,30.6671,-87.9365,4.358,0.08,1111122 
DISL,ioos:station:DISL:MHPA:1,2011-05-03T12:30:00Z,30.6671,-87.9365,4.431,0.08,1111122 
DISL,ioos:station:DISL:MHPA:1,2011-05-03T13:00:00Z,30.6671,-87.9365,4.488,0.08,1111122 
DISL,ioos:station:DISL:MHPA:1,2011-05-03T13:30:00Z,30.6671,-87.9365,4.558,0.08,1111122 
DISL,ioos:station:DISL:MHPA:1,2011-05-03T14:00:00Z,30.6671,-87.9365,4.661,0.08,1111122 
DISL,ioos:station:DISL:MHPA:1,2011-05-03T14:30:00Z,30.6671,-87.9365,4.762,0.08,1111122 
DISL,ioos:station:DISL:MHPA:1,2011-05-03T15:00:00Z,30.6671,-87.9365,4.838,0.08,1111122 
DISL,ioos:station:DISL:MHPA:1,2011-05-03T15:30:00Z,30.6671,-87.9365,4.965,0.08,1111122 
DISL,ioos:station:DISL:MHPA:1,2011-05-03T16:00:00Z,30.6671,-87.9365,5.056,0.08,1111122 
DISL,ioos:station:DISL:MHPA:1,2011-05-03T16:30:00Z,30.6671,-87.9365,5.111,0.08,1111122 
DISL,ioos:station:DISL:MHPA:1,2011-05-03T17:00:00Z,30.6671,-87.9365,5.171,0.08,1111122 
DISL,ioos:station:DISL:MHPA:1,2011-05-03T17:30:00Z,30.6671,-87.9365,5.159,0.08,1111122 
DISL,ioos:station:DISL:MHPA:1,2011-05-03T18:00:00Z,30.6671,-87.9365,4.989,0.08,1111122 
DISL,ioos:station:DISL:MHPA:1,2011-05-03T18:30:00Z,30.6671,-87.9365,4.831,0.08,1111122 
DISL,ioos:station:DISL:MHPA:1,2011-05-03T19:00:00Z,30.6671,-87.9365,4.644,0.08,1111122 
DISL,ioos:station:DISL:MHPA:1,2011-05-03T19:30:00Z,30.6671,-87.9365,4.58,0.08,1111122 
DISL,ioos:station:DISL:MHPA:1,2011-05-03T20:00:00Z,30.6671,-87.9365,4.29,0.08,1111122 
DISL,ioos:station:DISL:MHPA:1,2011-05-03T20:30:00Z,30.6671,-87.9365,4.138,0.08,1111122 
DISL,ioos:station:DISL:MHPA:1,2011-05-03T21:00:00Z,30.6671,-87.9365,3.94,0.08,1111122 
DISL,ioos:station:DISL:MHPA:1,2011-05-03T21:30:00Z,30.6671,-87.9365,3.785,0.08,1111122 
DISL,ioos:station:DISL:MHPA:1,2011-05-03T22:00:00Z,30.6671,-87.9365,3.59,0.08,1111122 
DISL,ioos:station:DISL:MHPA:1,2011-05-03T22:30:00Z,30.6671,-87.9365,3.473,0.08,1111122 
DISL,ioos:station:DISL:MHPA:1,2011-05-03T23:00:00Z,30.6671,-87.9365,3.346,0.08,1111122 
DISL,ioos:station:DISL:MHPA:1,2011-05-03T23:30:00Z,30.6671,-87.9365,3.181,0.08,1111122 
DISL,ioos:station:DISL:MHPA:1,2011-05-04T00:00:00Z,30.6671,-87.9365,3.039,0.08,1111122 
DISL,ioos:station:DISL:MHPA:1,2011-05-04T00:30:00Z,30.6671,-87.9365,2.869,0.08,1111122 
DISL,ioos:station:DISL:MHPA:1,2011-05-04T01:00:00Z,30.6671,-87.9365,2.713,0.08,1111122 
DISL,ioos:station:DISL:MHPA:1,2011-05-04T01:30:00Z,30.6671,-87.9365,2.566,0.08,1111122 
DISL,ioos:station:DISL:MHPA:1,2011-05-04T02:00:00Z,30.6671,-87.9365,2.439,0.08,1111122 
DISL,ioos:station:DISL:MHPA:1,2011-05-04T02:30:00Z,30.6671,-87.9365,2.334,0.08,1111122 
DISL,ioos:station:DISL:MHPA:1,2011-05-04T03:00:00Z,30.6671,-87.9365,2.246,0.08,1111122 
DISL,ioos:station:DISL:MHPA:1,2011-05-04T03:30:00Z,30.6671,-87.9365,2.173,0.08,1111122 
DISL,ioos:station:DISL:MHPA:1,2011-05-04T04:00:00Z,30.6671,-87.9365,2.116,0.08,1111122 
DISL,ioos:station:DISL:MHPA:1,2011-05-04T04:30:00Z,30.6671,-87.9365,2.05,0.08,1111122 
DISL,ioos:station:DISL:MHPA:1,2011-05-04T05:00:00Z,30.6671,-87.9365,1.989,0.08,1111122 
DISL,ioos:station:DISL:MHPA:1,2011-05-04T05:30:00Z,30.6671,-87.9365,1.924,0.08,1111122 
DISL,ioos:station:DISL:MHPA:1,2011-05-04T06:00:00Z,30.6671,-87.9365,1.858,0.08,1111122 
DISL,ioos:station:DISL:MHPA:1,2011-05-04T06:30:00Z,30.6671,-87.9365,1.805,0.08,1111122 
DISL,ioos:station:DISL:MHPA:1,2011-05-04T07:00:00Z,30.6671,-87.9365,1.757,0.08,1111122 
DISL,ioos:station:DISL:MHPA:1,2011-05-04T07:30:00Z,30.6671,-87.9365,1.719,0.08,1111122 
DISL,ioos:station:DISL:MHPA:1,2011-05-04T08:00:00Z,30.6671,-87.9365,1.692,0.08,1111122 
DISL,ioos:station:DISL:MHPA:1,2011-05-04T08:30:00Z,30.6671,-87.9365,1.679,0.08,1111122 
DISL,ioos:station:DISL:MHPA:1,2011-05-04T09:00:00Z,30.6671,-87.9365,1.686,0.08,1111122 
DISL,ioos:station:DISL:MHPA:1,2011-05-04T09:30:00Z,30.6671,-87.9365,1.707,0.08,1111122 
DISL,ioos:station:DISL:MHPA:1,2011-05-04T10:00:00Z,30.6671,-87.9365,1.734,0.08,1111122 
DISL,ioos:station:DISL:MHPA:1,2011-05-04T10:30:00Z,30.6671,-87.9365,1.771,0.08,1111122 
DISL,ioos:station:DISL:MHPA:1,2011-05-04T11:00:00Z,30.6671,-87.9365,1.834,0.08,1111122 
DISL,ioos:station:DISL:MHPA:1,2011-05-04T11:30:00Z,30.6671,-87.9365,1.941,0.08,1111122 
DISL,ioos:station:DISL:MHPA:1,2011-05-04T12:00:00Z,30.6671,-87.9365,2.096,0.08,1111122 
DISL,ioos:station:DISL:MHPA:1,2011-05-04T12:30:00Z,30.6671,-87.9365,2.278,0.08,1111122 
DISL,ioos:station:DISL:MHPA:1,2011-05-04T13:00:00Z,30.6671,-87.9365,2.477,0.08,1111122 
DISL,ioos:station:DISL:MHPA:1,2011-05-04T13:30:00Z,30.6671,-87.9365,2.701,0.08,1111122 
DISL,ioos:station:DISL:MHPA:1,2011-05-04T14:00:00Z,30.6671,-87.9365,2.869,0.08,1111122 
DISL,ioos:station:DISL:MHPA:1,2011-05-04T14:30:00Z,30.6671,-87.9365,2.945,0.08,1111122 
DISL,ioos:station:DISL:MHPA:1,2011-05-04T15:00:00Z,30.6671,-87.9365,3.073,0.08,1111122 
DISL,ioos:station:DISL:MHPA:1,2011-05-04T15:30:00Z,30.6671,-87.9365,3.238,0.08,1111122 
DISL,ioos:station:DISL:MHPA:1,2011-05-04T16:00:00Z,30.6671,-87.9365,3.265,0.08,1111122 
DISL,ioos:station:DISL:MHPA:1,2011-05-04T16:30:00Z,30.6671,-87.9365,3.277,0.08,1111122 
DISL,ioos:station:DISL:MHPA:1,2011-05-04T17:00:00Z,30.6671,-87.9365,3.412,0.08,1111122 
DISL,ioos:station:DISL:MHPA:1,2011-05-04T17:30:00Z,30.6671,-87.9365,3.479,0.08,1111122 
DISL,ioos:station:DISL:MHPA:1,2011-05-04T18:00:00Z,30.6671,-87.9365,3.536,0.08,1111122 
DISL,ioos:station:DISL:MHPA:1,2011-05-04T18:30:00Z,30.6671,-87.9365,3.559,0.08,1111122 
DISL,ioos:station:DISL:MHPA:1,2011-05-04T19:00:00Z,30.6671,-87.9365,3.575,0.08,1111122 
DISL,ioos:station:DISL:MHPA:1,2011-05-04T19:30:00Z,30.6671,-87.9365,3.569,0.08,1111122 
DISL,ioos:station:DISL:MHPA:1,2011-05-04T20:00:00Z,30.6671,-87.9365,3.564,0.09,1111122 
DISL,ioos:station:DISL:MHPA:1,2011-05-04T20:30:00Z,30.6671,-87.9365,3.538,0.09,1111122 
DISL,ioos:station:DISL:MHPA:1,2011-05-04T21:00:00Z,30.6671,-87.9365,3.473,0.08,1111122 
DISL,ioos:station:DISL:MHPA:1,2011-05-04T21:30:00Z,30.6671,-87.9365,3.377,0.08,1111122 
DISL,ioos:station:DISL:MHPA:1,2011-05-04T22:00:00Z,30.6671,-87.9365,3.286,0.08,1111122 
DISL,ioos:station:DISL:MHPA:1,2011-05-04T22:30:00Z,30.6671,-87.9365,3.178,0.08,1111122 
DISL,ioos:station:DISL:MHPA:1,2011-05-04T23:00:00Z,30.6671,-87.9365,3.066,0.08,1111122 
DISL,ioos:station:DISL:MHPA:1,2011-05-04T23:30:00Z,30.6671,-87.9365,2.964,0.08,1111122 
DISL,ioos:station:DISL:MHPA:1,2011-05-05T00:00:00Z,30.6671,-87.9365,2.863,0.08,1111122 
DISL,ioos:station:DISL:MHPA:1,2011-05-05T00:30:00Z,30.6671,-87.9365,2.756,0.08,1111122 
DISL,ioos:station:DISL:MHPA:1,2011-05-05T01:00:00Z,30.6671,-87.9365,2.647,0.08,1111122 
DISL,ioos:station:DISL:MHPA:1,2011-05-05T01:30:00Z,30.6671,-87.9365,2.547,0.08,1111122 
DISL,ioos:station:DISL:MHPA:1,2011-05-05T02:00:00Z,30.6671,-87.9365,2.462,0.08,1111122 
DISL,ioos:station:DISL:MHPA:1,2011-05-05T02:30:00Z,30.6671,-87.9365,2.391,0.08,1111122 
DISL,ioos:station:DISL:MHPA:1,2011-05-05T03:00:00Z,30.6671,-87.9365,2.323,0.08,1111122 
DISL,ioos:station:DISL:MHPA:1,2011-05-05T03:30:00Z,30.6671,-87.9365,2.256,0.08,1111122 
DISL,ioos:station:DISL:MHPA:1,2011-05-05T04:00:00Z,30.6671,-87.9365,2.194,0.08,1111122 
DISL,ioos:station:DISL:MHPA:1,2011-05-05T04:30:00Z,30.6671,-87.9365,2.14,0.08,1111122 
DISL,ioos:station:DISL:MHPA:1,2011-05-05T05:00:00Z,30.6671,-87.9365,2.098,0.08,1111122 
DISL,ioos:station:DISL:MHPA:1,2011-05-05T05:30:00Z,30.6671,-87.9365,2.051,0.08,1111122 
DISL,ioos:station:DISL:MHPA:1,2011-05-05T06:00:00Z,30.6671,-87.9365,2.009,0.08,1111122 
DISL,ioos:station:DISL:MHPA:1,2011-05-05T06:30:00Z,30.6671,-87.9365,1.974,0.08,1111122 
DISL,ioos:station:DISL:MHPA:1,2011-05-05T07:00:00Z,30.6671,-87.9365,1.95,0.08,1111122 
DISL,ioos:station:DISL:MHPA:1,2011-05-05T07:30:00Z,30.6671,-87.9365,1.937,0.08,1111122 
DISL,ioos:station:DISL:MHPA:1,2011-05-05T08:00:00Z,30.6671,-87.9365,1.938,0.08,1111122 
DISL,ioos:station:DISL:MHPA:1,2011-05-05T08:30:00Z,30.6671,-87.9365,1.971,0.08,1111122 
DISL,ioos:station:DISL:MHPA:1,2011-05-05T09:00:00Z,30.6671,-87.9365,2.05,0.08,1111122 
DISL,ioos:station:DISL:MHPA:1,2011-05-05T09:30:00Z,30.6671,-87.9365,2.145,0.08,1111122 
DISL,ioos:station:DISL:MHPA:1,2011-05-05T10:00:00Z,30.6671,-87.9365,2.23,0.08,1111122 
DISL,ioos:station:DISL:MHPA:1,2011-05-05T10:30:00Z,30.6671,-87.9365,2.332,0.08,1111122 
DISL,ioos:station:DISL:MHPA:1,2011-05-05T11:00:00Z,30.6671,-87.9365,2.42,0.08,1111122 
DISL,ioos:station:DISL:MHPA:1,2011-05-05T11:30:00Z,30.6671,-87.9365,2.467,0.08,1111122 
DISL,ioos:station:DISL:MHPA:1,2011-05-05T12:00:00Z,30.6671,-87.9365,2.49,0.08,1111122 
DISL,ioos:station:DISL:MHPA:1,2011-05-05T12:30:00Z,30.6671,-87.9365,2.525,0.08,1111122 
DISL,ioos:station:DISL:MHPA:1,2011-05-05T13:00:00Z,30.6671,-87.9365,2.583,0.08,1111122 
DISL,ioos:station:DISL:MHPA:1,2011-05-05T13:30:00Z,30.6671,-87.9365,2.672,0.08,1111122 
DISL,ioos:station:DISL:MHPA:1,2011-05-05T14:00:00Z,30.6671,-87.9365,2.861,0.08,1111122 
DISL,ioos:station:DISL:MHPA:1,2011-05-05T14:30:00Z,30.6671,-87.9365,3.115,0.08,1111122 
DISL,ioos:station:DISL:MHPA:1,2011-05-05T15:00:00Z,30.6671,-87.9365,3.347,0.08,1111122 
DISL,ioos:station:DISL:MHPA:1,2011-05-05T15:30:00Z,30.6671,-87.9365,3.534,0.08,1111122 
DISL,ioos:station:DISL:MHPA:1,2011-05-05T16:00:00Z,30.6671,-87.9365,3.726,0.08,1111122 
DISL,ioos:station:DISL:MHPA:1,2011-05-05T16:30:00Z,30.6671,-87.9365,3.871,0.08,1111122 
DISL,ioos:station:DISL:MHPA:1,2011-05-05T17:00:00Z,30.6671,-87.9365,3.96,0.08,1111122 
DISL,ioos:station:DISL:MHPA:1,2011-05-05T17:30:00Z,30.6671,-87.9365,4.084,0.08,1111122 
DISL,ioos:station:DISL:MHPA:1,2011-05-05T18:00:00Z,30.6671,-87.9365,4.137,0.08,1111122 
DISL,ioos:station:DISL:MHPA:1,2011-05-05T18:30:00Z,30.6671,-87.9365,4.213,0.08,1111122 
DISL,ioos:station:DISL:MHPA:1,2011-05-05T19:00:00Z,30.6671,-87.9365,4.288,0.08,1111122 
DISL,ioos:station:DISL:MHPA:1,2011-05-05T19:30:00Z,30.6671,-87.9365,4.315,0.08,1111122 
DISL,ioos:station:DISL:MHPA:1,2011-05-05T20:00:00Z,30.6671,-87.9365,4.343,0.08,1111122 
DISL,ioos:station:DISL:MHPA:1,2011-05-05T20:30:00Z,30.6671,-87.9365,4.308,0.08,1111122 
DISL,ioos:station:DISL:MHPA:1,2011-05-05T21:00:00Z,30.6671,-87.9365,4.215,0.08,1111122 
DISL,ioos:station:DISL:MHPA:1,2011-05-05T21:30:00Z,30.6671,-87.9365,4.15,0.08,1111122 
DISL,ioos:station:DISL:MHPA:1,2011-05-05T22:00:00Z,30.6671,-87.9365,4.08,0.08,1111122 
DISL,ioos:station:DISL:MHPA:1,2011-05-05T22:30:00Z,30.6671,-87.9365,4.002,0.08,1111122 
DISL,ioos:station:DISL:MHPA:1,2011-05-05T23:00:00Z,30.6671,-87.9365,3.928,0.08,1111122 
DISL,ioos:station:DISL:MHPA:1,2011-05-05T23:30:00Z,30.6671,-87.9365,3.831,0.08,1111122 
DISL,ioos:station:DISL:MHPA:1,2011-05-06T00:00:00Z,30.6671,-87.9365,3.699,0.08,1111122 
DISL,ioos:station:DISL:MHPA:1,2011-05-06T00:30:00Z,30.6671,-87.9365,3.566,0.08,1111122 
DISL,ioos:station:DISL:MHPA:1,2011-05-06T01:00:00Z,30.6671,-87.9365,3.442,0.08,1111122 
DISL,ioos:station:DISL:MHPA:1,2011-05-06T01:30:00Z,30.6671,-87.9365,3.314,0.08,1111122 
DISL,ioos:station:DISL:MHPA:1,2011-05-06T02:00:00Z,30.6671,-87.9365,3.19,0.08,1111122 
DISL,ioos:station:DISL:MHPA:1,2011-05-06T02:30:00Z,30.6671,-87.9365,3.073,0.08,1111122 
DISL,ioos:station:DISL:MHPA:1,2011-05-06T03:00:00Z,30.6671,-87.9365,2.957,0.08,1111122 
DISL,ioos:station:DISL:MHPA:1,2011-05-06T03:30:00Z,30.6671,-87.9365,2.837,0.08,1111122 
DISL,ioos:station:DISL:MHPA:1,2011-05-06T04:00:00Z,30.6671,-87.9365,2.731,0.08,1111122 
DISL,ioos:station:DISL:MHPA:1,2011-05-06T04:30:00Z,30.6671,-87.9365,2.643,0.08,1111122 
DISL,ioos:station:DISL:MHPA:1,2011-05-06T05:00:00Z,30.6671,-87.9365,2.574,0.08,1111122 
DISL,ioos:station:DISL:MHPA:1,2011-05-06T05:30:00Z,30.6671,-87.9365,2.513,0.08,1111122 
DISL,ioos:station:DISL:MHPA:1,2011-05-06T06:00:00Z,30.6671,-87.9365,2.46,0.08,1111122 
DISL,ioos:station:DISL:MHPA:1,2011-05-06T06:30:00Z,30.6671,-87.9365,2.425,0.08,1111122 
DISL,ioos:station:DISL:MHPA:1,2011-05-06T07:00:00Z,30.6671,-87.9365,2.407,0.08,1111122 
DISL,ioos:station:DISL:MHPA:1,2011-05-06T07:30:00Z,30.6671,-87.9365,2.4,0.08,1111122 
DISL,ioos:station:DISL:MHPA:1,2011-05-06T08:00:00Z,30.6671,-87.9365,2.41,0.08,1111122 
DISL,ioos:station:DISL:MHPA:1,2011-05-06T08:30:00Z,30.6671,-87.9365,2.468,0.08,1111122 
DISL,ioos:station:DISL:MHPA:1,2011-05-06T09:00:00Z,30.6671,-87.9365,2.552,0.08,1111122 
DISL,ioos:station:DISL:MHPA:1,2011-05-06T09:30:00Z,30.6671,-87.9365,2.663,0.08,1111122 
DISL,ioos:station:DISL:MHPA:1,2011-05-06T10:00:00Z,30.6671,-87.9365,2.798,0.08,1111122 
DISL,ioos:station:DISL:MHPA:1,2011-05-06T10:30:00Z,30.6671,-87.9365,2.933,0.08,1111122 
DISL,ioos:station:DISL:MHPA:1,2011-05-06T11:00:00Z,30.6671,-87.9365,3.05,0.08,1111122 
DISL,ioos:station:DISL:MHPA:1,2011-05-06T11:30:00Z,30.6671,-87.9365,3.171,0.08,1111122 
DISL,ioos:station:DISL:MHPA:1,2011-05-06T12:00:00Z,30.6671,-87.9365,3.281,0.08,1111122 
DISL,ioos:station:DISL:MHPA:1,2011-05-06T13:00:00Z,30.6671,-87.9365,3.418,0.08,1111122 
DISL,ioos:station:DISL:MHPA:1,2011-05-06T13:30:00Z,30.6671,-87.9365,3.516,0.08,1111122 
DISL,ioos:station:DISL:MHPA:1,2011-05-06T14:00:00Z,30.6671,-87.9365,3.633,0.08,1111122 
DISL,ioos:station:DISL:MHPA:1,2011-05-06T14:30:00Z,30.6671,-87.9365,3.76,0.08,1111122 
DISL,ioos:station:DISL:MHPA:1,2011-05-06T15:00:00Z,30.6671,-87.9365,3.868,0.08,1111122 
DISL,ioos:station:DISL:MHPA:1,2011-05-06T15:30:00Z,30.6671,-87.9365,3.988,0.08,1111122 
DISL,ioos:station:DISL:MHPA:1,2011-05-06T16:00:00Z,30.6671,-87.9365,4.09,0.08,1111122 